TimeEEST,TemperatureF,Dew PointF,Humidity,Sea Level PressureIn,VisibilityMPH,Wind Direction,Wind SpeedMPH,Gust SpeedMPH,PrecipitationIn,Events,Conditions,WindDirDegrees,DateUTC
12:20 AM,62.6,60.8,94,29.95,6.2,North,4.6,-,N/A,,Scattered Clouds,360,2012-10-06 21:20:00
12:50 AM,62.6,60.8,94,29.95,6.2,North,4.6,-,N/A,,Scattered Clouds,350,2012-10-06 21:50:00
1:20 AM,64.4,60.8,88,29.95,6.2,NE,3.5,-,N/A,,Mostly Cloudy,50,2012-10-06 22:20:00
1:50 AM,62.6,59.0,88,29.95,6.2,NNE,2.3,-,N/A,,Mostly Cloudy,30,2012-10-06 22:50:00
2:20 AM,62.6,59.0,88,29.92,6.2,North,8.1,-,N/A,,Mostly Cloudy,350,2012-10-06 23:20:00
2:50 AM,62.6,59.0,88,29.92,6.2,ENE,4.6,-,N/A,,Mostly Cloudy,70,2012-10-06 23:50:00
3:00 AM,63,60,85,29.93,6,ENE,4.6,,,,Partly Cloudy,70,2012-10-07 00:00:00
3:20 AM,64.4,60.8,88,29.92,6.2,North,5.8,-,N/A,,Mostly Cloudy,10,2012-10-07 00:20:00
3:50 AM,64.4,59.0,83,29.92,6.2,NNE,5.8,-,N/A,,Mostly Cloudy,20,2012-10-07 00:50:00
4:20 AM,62.6,60.8,94,29.92,6.2,NE,1.2,-,N/A,,Mostly Cloudy,40,2012-10-07 01:20:00
4:50 AM,62.6,59.0,88,29.92,6.2,NNW,1.2,-,N/A,,Mostly Cloudy,330,2012-10-07 01:50:00
5:20 AM,62.6,59.0,88,29.92,6.2,North,4.6,-,N/A,,Mostly Cloudy,350,2012-10-07 02:20:00
5:50 AM,64.4,60.8,88,29.92,6.2,NNW,5.8,-,N/A,,Mostly Cloudy,330,2012-10-07 02:50:00
6:20 AM,64.4,60.8,88,29.92,6.2,West,3.5,-,N/A,,Mostly Cloudy,280,2012-10-07 03:20:00
6:50 AM,64.4,60.8,88,29.92,6.2,West,3.5,-,N/A,,Mostly Cloudy,280,2012-10-07 03:50:00
7:20 AM,64.4,60.8,88,29.92,6.2,SW,2.3,-,N/A,,Mostly Cloudy,230,2012-10-07 04:20:00
7:50 AM,66.2,60.8,83,29.92,6.2,WNW,2.3,-,N/A,,Mostly Cloudy,300,2012-10-07 04:50:00
8:50 AM,71.6,57.2,60,29.92,6.2,North,2.3,-,N/A,,Mostly Cloudy,10,2012-10-07 05:50:00
9:00 AM,71,58,54,29.93,6,North,2.3,,,,Partly Cloudy,10,2012-10-07 06:00:00
9:20 AM,75.2,57.2,53,29.92,6.2,NW,2.3,-,N/A,,Scattered Clouds,310,2012-10-07 06:20:00
9:50 AM,77.0,57.2,50,29.92,6.2,SSW,2.3,-,N/A,,Scattered Clouds,200,2012-10-07 06:50:00
10:20 AM,80.6,55.4,42,29.92,6.2,South,2.3,-,N/A,,Scattered Clouds,170,2012-10-07 07:20:00
10:50 AM,80.6,57.2,45,29.95,6.2,SE,5.8,-,N/A,,Mostly Cloudy,140,2012-10-07 07:50:00
11:20 AM,80.6,59.0,48,29.92,6.2,SSE,3.5,-,N/A,,Mostly Cloudy,150,2012-10-07 08:20:00
11:50 AM,80.6,57.2,45,29.92,6.2,South,2.3,-,N/A,,Mostly Cloudy,180,2012-10-07 08:50:00
12:20 PM,82.4,59.0,45,29.92,6.2,SW,2.3,-,N/A,,Scattered Clouds,220,2012-10-07 09:20:00
12:50 PM,82.4,59.0,45,29.92,6.2,SW,5.8,-,N/A,,Mostly Cloudy,220,2012-10-07 09:50:00
1:20 PM,82.4,59.0,45,29.89,6.2,SSW,6.9,-,N/A,,Scattered Clouds,210,2012-10-07 10:20:00
1:50 PM,84.2,55.4,37,29.89,6.2,West,4.6,-,N/A,,Scattered Clouds,280,2012-10-07 10:50:00
2:20 PM,84.2,55.4,37,29.89,6.2,West,4.6,-,N/A,,Scattered Clouds,280,2012-10-07 11:20:00
2:50 PM,86.0,53.6,33,29.89,6.2,WSW,3.5,-,N/A,,Mostly Cloudy,250,2012-10-07 11:50:00
3:00 PM,85,54,24,29.88,6,WSW,3.5,,,,Partly Cloudy,250,2012-10-07 12:00:00
3:20 PM,84.2,50.0,30,29.86,6.2,SSW,3.5,-,N/A,,Mostly Cloudy,200,2012-10-07 12:20:00
3:50 PM,82.4,50.0,32,29.86,6.2,SSW,3.5,-,N/A,,Scattered Clouds,210,2012-10-07 12:50:00
4:20 PM,84.2,53.6,35,29.86,6.2,SW,5.8,-,N/A,,Mostly Cloudy,230,2012-10-07 13:20:00
4:50 PM,84.2,57.2,40,29.86,6.2,SSW,9.2,-,N/A,,Mostly Cloudy,200,2012-10-07 13:50:00
5:20 PM,82.4,59.0,45,29.86,6.2,SSW,9.2,-,N/A,,Mostly Cloudy,210,2012-10-07 14:20:00
5:50 PM,80.6,57.2,45,29.86,6.2,South,6.9,-,N/A,,Scattered Clouds,190,2012-10-07 14:50:00
6:20 PM,77.0,62.6,61,29.86,6.2,South,6.9,-,N/A,,Scattered Clouds,190,2012-10-07 15:20:00
6:50 PM,75.2,62.6,65,29.86,6.2,SSW,6.9,-,N/A,,Scattered Clouds,200,2012-10-07 15:50:00
7:20 PM,73.4,62.6,69,29.86,6.2,SSW,8.1,-,N/A,,Mostly Cloudy,210,2012-10-07 16:20:00
7:50 PM,73.4,62.6,69,29.86,6.2,SW,2.3,-,N/A,,Mostly Cloudy,220,2012-10-07 16:50:00
8:20 PM,73.4,62.6,69,29.86,6.2,ESE,5.8,-,N/A,,Mostly Cloudy,110,2012-10-07 17:20:00
8:50 PM,71.6,62.6,73,29.86,6.2,ESE,3.5,-,N/A,,Mostly Cloudy,110,2012-10-07 17:50:00
9:00 PM,72,56,47,29.87,12,ESE,3.5,,,,Partly Cloudy,110,2012-10-07 18:00:00
9:20 PM,71.6,60.8,69,29.89,6.2,East,3.5,-,N/A,,Mostly Cloudy,90,2012-10-07 18:20:00
9:50 PM,71.6,60.8,69,29.89,6.2,ENE,2.3,-,N/A,,Mostly Cloudy,60,2012-10-07 18:50:00
10:20 PM,68.0,62.6,83,29.89,6.2,ENE,2.3,-,N/A,,Mostly Cloudy,60,2012-10-07 19:20:00
10:50 PM,68.0,62.6,83,29.89,6.2,NNE,2.3,-,N/A,,Mostly Cloudy,20,2012-10-07 19:50:00
11:20 PM,68.0,62.6,83,29.89,6.2,NNE,6.9,-,N/A,,Mostly Cloudy,20,2012-10-07 20:20:00
11:50 PM,68.0,62.6,83,29.89,6.2,North,6.9,-,N/A,,Mostly Cloudy,10,2012-10-07 20:50:00